NOAA 20 (43013 NORAD) Tracking and Keplerian Element Data
This shows tracking and keplerian element data for the satellite.
Feedback or suggestion? Click here.
Element | Value |
Catalog | 43013 |
Name | NOAA 20 |
Epoch Orbit | 16454 |
Epoch Day | 21.15267245 |
Epoch Year | 2021 |
RAAN | 321.9328 |
Inclination | 98.741 |
Eccentricity | 0.0001373 |
Argument of Perigee | 85.2919 |
Mean Anonmoly | 274.8414 |
Mean Motion | 14.19548298 |
Decay Rate | 8E-08 |
L1 | 1 43013U 17073A 21021.15267245 .00000008 00000-0 24746-4 0 9992 |
L2 | 2 43013 98.7410 321.9328 0001373 85.2919 274.8414 14.19548298164549 |
Live tracking and technical data element details for NOAA 20 (NORAD 43013). NOAA 20 can be tracked NOW for your location showing map with azimuth and elevation plus other details from your city location.
Track the satellite on the map from your city or location and see movement details for azimuth, elevation, latitude, longitude, range, height, and movement on the map or in text.
IsCatalogInMostPopularTable: catalog: 43013, numindb: 663
Update: records affected: 1
GetName: 43013 NOAA 20
Hit Count: updated at: Sat, 23 Jan 2021 03:41:33 GMT